Time,TemperatureF,DewpointF,PressureIn,WindDirection,WindDirectionDegrees,WindSpeedMPH,WindSpeedGustMPH,Humidity,HourlyPrecipIn,Conditions,Clouds,dailyrainin,SoftwareType,DateUTC
2013-02-08 00:01:00,33.0,26.0,29.92,SSW,209,0.0,7.0,74,-99.99,,,0.00,,2013-02-08 07:01:00,
2013-02-08 00:11:00,33.0,26.0,29.90,SSW,209,2.0,7.0,76,-99.99,,,0.00,,2013-02-08 07:11:00,
2013-02-08 00:21:00,33.0,26.0,29.90,SSW,209,2.0,7.0,76,-99.99,,,0.00,,2013-02-08 07:21:00,
2013-02-08 00:30:00,40.0,30.0,29.81,SW,214,11.0,23.0,68,-99.99,,,0.00,,2013-02-08 07:30:00,
2013-02-08 00:31:00,39.0,31.0,29.85,SSW,200,10.0,15.0,73,-99.99,,,0.00,,2013-02-08 07:31:00,
2013-02-08 00:42:00,40.0,31.0,29.83,SSW,192,18.0,22.0,70,-99.99,,,0.00,,2013-02-08 07:42:00,
2013-02-08 00:52:00,40.0,31.0,29.83,SSW,192,18.0,22.0,70,-99.99,,,0.00,,2013-02-08 07:52:00,
2013-02-08 01:01:00,40.0,30.0,29.81,SSW,192,10.0,19.0,69,-99.99,,,0.00,,2013-02-08 08:01:00,
2013-02-08 01:11:00,40.0,30.0,29.81,SW,214,11.0,23.0,68,-99.99,,,0.00,,2013-02-08 08:11:00,
2013-02-08 01:21:00,40.0,30.0,29.81,SW,214,11.0,23.0,68,-99.99,,,0.00,,2013-02-08 08:21:00,
2013-02-08 01:41:00,39.0,31.0,29.81,South,188,16.0,33.0,71,-99.99,,,0.00,,2013-02-08 08:41:00,
2013-02-08 01:52:00,39.0,31.0,29.78,SSW,211,25.0,30.0,71,-99.99,,,0.00,,2013-02-08 08:52:00,
2013-02-08 02:02:00,39.0,31.0,29.78,SSW,211,25.0,30.0,71,-99.99,,,0.00,,2013-02-08 09:02:00,
2013-02-08 02:11:00,39.0,31.0,29.77,SSW,202,14.0,30.0,71,-99.99,,,0.00,,2013-02-08 09:11:00,
2013-02-08 02:21:00,39.0,31.0,29.77,SSW,202,14.0,30.0,71,-99.99,,,0.00,,2013-02-08 09:21:00,
2013-02-08 02:31:00,39.0,31.0,29.78,SSW,211,13.0,26.0,72,-99.99,,,0.00,,2013-02-08 09:31:00,
2013-02-08 02:42:00,39.0,31.0,29.77,SW,215,18.0,27.0,72,-99.99,,,0.00,,2013-02-08 09:42:00,
2013-02-08 02:52:00,39.0,31.0,29.77,SW,215,18.0,27.0,72,-99.99,,,0.00,,2013-02-08 09:52:00,
2013-02-08 03:01:00,39.0,31.0,29.76,SSW,196,18.0,28.0,72,-99.99,,,0.00,,2013-02-08 10:01:00,
2013-02-08 03:11:00,39.0,31.0,29.75,SSW,196,17.0,28.0,73,-99.99,,,0.00,,2013-02-08 10:11:00,
2013-02-08 03:22:00,39.0,31.0,29.75,SSW,196,17.0,28.0,73,-99.99,,,0.00,,2013-02-08 10:22:00,
2013-02-08 03:31:00,39.0,30.0,29.75,SSW,198,17.0,30.0,72,-99.99,,,0.00,,2013-02-08 10:31:00,
2013-02-08 03:41:00,39.0,30.0,29.74,SW,219,17.0,30.0,72,-99.99,,,0.00,,2013-02-08 10:41:00,
2013-02-08 03:52:00,39.0,30.0,29.74,SW,219,17.0,30.0,72,-99.99,,,0.00,,2013-02-08 10:52:00,
2013-02-08 04:01:00,38.0,30.0,29.73,SSW,213,14.0,30.0,72,-99.99,,,0.00,,2013-02-08 11:01:00,
2013-02-08 04:11:00,38.0,29.0,29.72,South,190,14.0,30.0,71,-99.99,,,0.00,,2013-02-08 11:11:00,
2013-02-08 04:21:00,38.0,29.0,29.72,South,190,14.0,30.0,71,-99.99,,,0.00,,2013-02-08 11:21:00,
2013-02-08 04:32:00,38.0,29.0,29.72,SSW,205,17.0,25.0,71,-99.99,,,0.00,,2013-02-08 11:32:00,
2013-02-08 04:41:00,38.0,29.0,29.71,SSW,211,22.0,26.0,70,-99.99,,,0.00,,2013-02-08 11:41:00,
2013-02-08 04:52:00,38.0,29.0,29.71,SSW,211,22.0,26.0,70,-99.99,,,0.00,,2013-02-08 11:52:00,
2013-02-08 05:01:00,37.0,28.0,29.74,SW,221,14.0,25.0,70,-99.99,,,0.00,,2013-02-08 12:01:00,
2013-02-08 05:11:00,37.0,28.0,29.74,SW,221,14.0,25.0,70,-99.99,,,0.00,,2013-02-08 12:11:00,
2013-02-08 05:32:00,37.0,28.0,29.74,SW,229,11.0,23.0,69,-99.99,,,0.00,,2013-02-08 12:32:00,
2013-02-08 05:42:00,37.0,27.0,29.73,SSW,202,9.0,25.0,68,-99.99,,,0.00,,2013-02-08 12:42:00,
2013-02-08 05:52:00,37.0,27.0,29.73,SSW,202,9.0,25.0,68,-99.99,,,0.00,,2013-02-08 12:52:00,
2013-02-08 06:01:00,37.0,27.0,29.76,SSW,204,13.0,19.0,67,-99.99,,,0.00,,2013-02-08 13:01:00,
2013-02-08 06:11:00,37.0,27.0,29.76,SSW,209,12.0,24.0,66,-99.99,,,0.00,,2013-02-08 13:11:00,
2013-02-08 06:21:00,37.0,27.0,29.76,SSW,209,12.0,24.0,66,-99.99,,,0.00,,2013-02-08 13:21:00,
2013-02-08 06:32:00,37.0,27.0,29.74,SW,217,10.0,25.0,65,-99.99,,,0.00,,2013-02-08 13:32:00,
2013-02-08 06:42:00,37.0,27.0,29.74,SW,217,10.0,25.0,65,-99.99,,,0.00,,2013-02-08 13:42:00,
2013-02-08 06:52:00,37.0,27.0,29.74,SW,217,10.0,25.0,65,-99.99,,,0.00,,2013-02-08 13:52:00,
2013-02-08 07:02:00,37.0,26.0,29.77,South,190,6.0,21.0,66,-99.99,,,0.00,,2013-02-08 14:02:00,
2013-02-08 07:11:00,36.0,26.0,29.76,SSW,205,10.0,24.0,67,-99.99,,,0.00,,2013-02-08 14:11:00,
2013-02-08 07:21:00,36.0,26.0,29.76,SSW,205,10.0,24.0,67,-99.99,,,0.00,,2013-02-08 14:21:00,
2013-02-08 07:32:00,36.0,27.0,29.75,SSW,210,12.0,20.0,68,-99.99,,,0.00,,2013-02-08 14:32:00,
2013-02-08 07:42:00,37.0,27.0,29.75,SSW,209,9.0,20.0,68,-99.99,,,0.00,,2013-02-08 14:42:00,
2013-02-08 07:52:00,37.0,27.0,29.78,SW,216,16.0,19.0,67,-99.99,,,0.00,,2013-02-08 14:52:00,
2013-02-08 08:01:00,37.0,27.0,29.78,SW,216,16.0,19.0,67,-99.99,,,0.00,,2013-02-08 15:01:00,
2013-02-08 08:11:00,37.0,27.0,29.78,SSW,194,14.0,19.0,67,-99.99,,,0.00,,2013-02-08 15:11:00,
2013-02-08 08:21:00,37.0,27.0,29.78,SSW,194,14.0,19.0,67,-99.99,,,0.00,,2013-02-08 15:21:00,
2013-02-08 08:32:00,38.0,28.0,29.76,SSW,205,10.0,22.0,67,-99.99,,,0.00,,2013-02-08 15:32:00,
2013-02-08 08:42:00,38.0,28.0,29.76,SSE,160,15.0,25.0,66,-99.99,,,0.00,,2013-02-08 15:42:00,
2013-02-08 08:52:00,38.0,28.0,29.76,SSE,160,15.0,25.0,66,-99.99,,,0.00,,2013-02-08 15:52:00,
2013-02-08 09:01:00,39.0,28.0,29.72,South,186,27.0,32.0,64,-99.99,,,0.00,,2013-02-08 16:01:00,
2013-02-08 09:11:00,39.0,28.0,29.72,South,175,15.0,32.0,65,-99.99,,,0.00,,2013-02-08 16:11:00,
2013-02-08 09:21:00,39.0,28.0,29.72,South,175,15.0,32.0,65,-99.99,,,0.00,,2013-02-08 16:21:00,
2013-02-08 09:32:00,39.0,28.0,29.73,South,169,13.0,32.0,65,-99.99,,,0.00,,2013-02-08 16:32:00,
2013-02-08 09:42:00,40.0,28.0,29.73,South,182,13.0,35.0,62,-99.99,,,0.00,,2013-02-08 16:42:00,
2013-02-08 09:52:00,40.0,28.0,29.73,South,182,13.0,35.0,62,-99.99,,,0.00,,2013-02-08 16:52:00,
2013-02-08 10:03:00,40.0,29.0,29.73,SSE,167,14.0,29.0,64,-99.99,,,0.00,,2013-02-08 17:03:00,
2013-02-08 10:12:00,40.0,28.0,29.73,SSE,166,15.0,30.0,63,-99.99,,,0.00,,2013-02-08 17:12:00,
2013-02-08 10:22:00,40.0,28.0,29.73,SSE,166,15.0,30.0,63,-99.99,,,0.00,,2013-02-08 17:22:00,
2013-02-08 10:32:00,40.0,28.0,29.73,SSW,195,13.0,32.0,63,-99.99,,,0.00,,2013-02-08 17:32:00,
2013-02-08 10:42:00,38.0,27.0,29.75,South,173,14.0,33.0,65,-99.99,,,0.00,,2013-02-08 17:42:00,
2013-02-08 10:52:00,38.0,27.0,29.75,South,173,14.0,33.0,65,-99.99,,,0.00,,2013-02-08 17:52:00,
2013-02-08 11:01:00,38.0,26.0,29.78,SSW,194,12.0,31.0,62,-99.99,,,0.00,,2013-02-08 18:01:00,
2013-02-08 11:12:00,40.0,25.0,29.78,SSW,207,13.0,39.0,54,-99.99,,,0.00,,2013-02-08 18:12:00,
2013-02-08 11:23:00,40.0,25.0,29.78,SSW,207,13.0,39.0,54,-99.99,,,0.00,,2013-02-08 18:23:00,
2013-02-08 11:33:00,39.0,25.0,29.77,SSE,155,28.0,38.0,55,-99.99,,,0.00,,2013-02-08 18:33:00,
2013-02-08 11:43:00,41.0,24.0,29.75,SSE,164,20.0,38.0,51,-99.99,,,0.00,,2013-02-08 18:43:00,
2013-02-08 11:52:00,41.0,24.0,29.75,SSE,164,20.0,38.0,51,-99.99,,,0.00,,2013-02-08 18:52:00,
2013-02-08 12:01:00,41.0,24.0,29.71,South,191,21.0,38.0,51,-99.99,,,0.00,,2013-02-08 19:01:00,
2013-02-08 12:11:00,41.0,24.0,29.70,SSE,162,11.0,38.0,50,-99.99,,,0.00,,2013-02-08 19:11:00,
2013-02-08 12:22:00,41.0,24.0,29.70,SSE,162,11.0,38.0,50,-99.99,,,0.00,,2013-02-08 19:22:00,
2013-02-08 12:32:00,41.0,24.0,29.70,SSE,161,18.0,36.0,51,-99.99,,,0.00,,2013-02-08 19:32:00,
2013-02-08 12:42:00,41.0,23.0,29.69,SSE,165,12.0,36.0,50,-99.99,,,0.00,,2013-02-08 19:42:00,
2013-02-08 12:52:00,41.0,23.0,29.69,SSE,165,12.0,36.0,50,-99.99,,,0.00,,2013-02-08 19:52:00,
2013-02-08 13:01:00,41.0,24.0,29.68,South,179,10.0,39.0,51,-99.99,,,0.00,,2013-02-08 20:01:00,
2013-02-08 13:11:00,41.0,24.0,29.69,SSE,161,13.0,39.0,51,-99.99,,,0.00,,2013-02-08 20:11:00,
2013-02-08 13:21:00,41.0,24.0,29.69,SSE,161,13.0,39.0,51,-99.99,,,0.00,,2013-02-08 20:21:00,
2013-02-08 13:31:00,40.0,24.0,29.68,South,176,15.0,36.0,52,-99.99,,,0.00,,2013-02-08 20:31:00,
2013-02-08 13:41:00,40.0,24.0,29.67,South,177,21.0,36.0,52,-99.99,,,0.00,,2013-02-08 20:41:00,
2013-02-08 13:52:00,40.0,24.0,29.67,South,177,21.0,36.0,52,-99.99,,,0.00,,2013-02-08 20:52:00,
2013-02-08 14:01:00,41.0,22.0,29.65,SSW,203,26.0,40.0,47,-99.99,,,0.00,,2013-02-08 21:01:00,
2013-02-08 14:11:00,41.0,21.0,29.64,South,186,21.0,40.0,46,-99.99,,,0.00,,2013-02-08 21:11:00,
2013-02-08 14:21:00,41.0,21.0,29.64,South,186,21.0,40.0,46,-99.99,,,0.00,,2013-02-08 21:21:00,
2013-02-08 14:32:00,40.0,22.0,29.65,SSE,148,21.0,44.0,48,-99.99,,,0.00,,2013-02-08 21:32:00,
2013-02-08 14:42:00,40.0,20.0,29.65,SSE,164,24.0,44.0,45,-99.99,,,0.00,,2013-02-08 21:42:00,
2013-02-08 14:52:00,40.0,20.0,29.63,South,189,25.0,40.0,43,-99.99,,,0.00,,2013-02-08 21:52:00,
2013-02-08 15:01:00,40.0,20.0,29.63,South,189,25.0,40.0,43,-99.99,,,0.00,,2013-02-08 22:01:00,
2013-02-08 15:11:00,40.0,20.0,29.64,SW,218,28.0,42.0,45,-99.99,,,0.00,,2013-02-08 22:11:00,
2013-02-08 15:21:00,40.0,20.0,29.64,SW,218,28.0,42.0,45,-99.99,,,0.00,,2013-02-08 22:21:00,
2013-02-08 15:31:00,41.0,20.0,29.62,SSE,159,17.0,35.0,44,-99.99,,,0.00,,2013-02-08 22:31:00,
2013-02-08 15:42:00,40.0,21.0,29.64,SSW,210,20.0,39.0,47,-99.99,,,0.00,,2013-02-08 22:42:00,
2013-02-08 15:52:00,40.0,21.0,29.64,SSW,210,20.0,39.0,47,-99.99,,,0.00,,2013-02-08 22:52:00,
2013-02-08 16:01:00,38.0,20.0,29.66,SSW,201,22.0,34.0,48,-99.99,,,0.00,,2013-02-08 23:01:00,
2013-02-08 16:11:00,38.0,21.0,29.65,SSE,167,14.0,36.0,49,-99.99,,,0.00,,2013-02-08 23:11:00,
2013-02-08 16:21:00,38.0,21.0,29.65,SSE,167,14.0,36.0,49,-99.99,,,0.00,,2013-02-08 23:21:00,
2013-02-08 16:31:00,38.0,20.0,29.65,SSW,193,29.0,43.0,48,-99.99,,,0.00,,2013-02-08 23:31:00,
2013-02-08 16:41:00,37.0,19.0,29.67,South,186,25.0,43.0,48,-99.99,,,0.00,,2013-02-08 23:41:00,
2013-02-08 16:52:00,37.0,19.0,29.67,South,186,25.0,43.0,48,-99.99,,,0.00,,2013-02-08 23:52:00,
2013-02-08 17:01:00,38.0,20.0,29.67,South,190,32.0,32.0,49,-99.99,,,0.00,,2013-02-09 00:01:00,
2013-02-08 17:11:00,37.0,20.0,29.67,SSE,153,22.0,32.0,50,-99.99,,,0.00,,2013-02-09 00:11:00,
2013-02-08 17:21:00,37.0,20.0,29.67,SSE,153,22.0,32.0,50,-99.99,,,0.00,,2013-02-09 00:21:00,
2013-02-08 17:32:00,36.0,19.0,29.69,South,176,20.0,33.0,48,-99.99,,,0.00,,2013-02-09 00:32:00,
2013-02-08 17:42:00,36.0,19.0,29.69,South,176,20.0,33.0,48,-99.99,,,0.00,,2013-02-09 00:42:00,
2013-02-08 17:52:00,36.0,19.0,29.69,South,176,20.0,33.0,48,-99.99,,,0.00,,2013-02-09 00:52:00,
2013-02-08 18:01:00,36.0,18.0,29.68,South,171,15.0,32.0,47,-99.99,,,0.00,,2013-02-09 01:01:00,
2013-02-08 18:11:00,36.0,18.0,29.68,South,188,13.0,32.0,49,-99.99,,,0.00,,2013-02-09 01:11:00,
2013-02-08 18:21:00,36.0,18.0,29.68,South,188,13.0,32.0,49,-99.99,,,0.00,,2013-02-09 01:21:00,
2013-02-08 18:31:00,35.0,19.0,29.68,SSE,158,9.0,21.0,51,-99.99,,,0.00,,2013-02-09 01:31:00,
2013-02-08 18:41:00,35.0,18.0,29.68,South,173,9.0,24.0,51,-99.99,,,0.00,,2013-02-09 01:41:00,
2013-02-08 18:52:00,35.0,18.0,29.68,South,173,9.0,24.0,51,-99.99,,,0.00,,2013-02-09 01:52:00,
2013-02-08 19:01:00,34.0,19.0,29.69,South,181,14.0,25.0,53,-99.99,,,0.00,,2013-02-09 02:01:00,
2013-02-08 19:11:00,34.0,20.0,29.70,SSE,157,12.0,25.0,56,-99.99,,,0.00,,2013-02-09 02:11:00,
2013-02-08 19:21:00,34.0,20.0,29.70,SSE,157,12.0,25.0,56,-99.99,,,0.00,,2013-02-09 02:21:00,
2013-02-08 19:32:00,34.0,20.0,29.70,SSE,159,12.0,27.0,57,-99.99,,,0.00,,2013-02-09 02:32:00,
2013-02-08 19:42:00,34.0,21.0,29.70,South,171,7.0,27.0,60,-99.99,,,0.00,,2013-02-09 02:42:00,
2013-02-08 19:52:00,34.0,21.0,29.70,South,171,7.0,27.0,60,-99.99,,,0.00,,2013-02-09 02:52:00,
2013-02-08 20:01:00,33.0,22.0,29.70,South,171,10.0,22.0,63,-99.99,,,0.00,,2013-02-09 03:01:00,
2013-02-08 20:11:00,32.0,22.0,29.70,SE,146,22.0,23.0,66,-99.99,,,-99.99,,2013-02-09 03:11:00,
2013-02-08 20:21:00,32.0,22.0,29.70,SE,146,22.0,23.0,66,-99.99,,,-99.99,,2013-02-09 03:21:00,
2013-02-08 20:32:00,32.0,22.0,29.70,SSW,197,11.0,27.0,65,-99.99,,,0.00,,2013-02-09 03:32:00,
2013-02-08 20:41:00,29.0,25.0,29.73,SW,221,10.0,27.0,83,-99.99,,,0.00,,2013-02-09 03:41:00,
2013-02-08 20:52:00,29.0,25.0,29.73,SW,221,10.0,27.0,83,-99.99,,,0.00,,2013-02-09 03:52:00,
2013-02-08 21:02:00,30.0,23.0,29.69,SSW,210,18.0,20.0,74,-99.99,,,0.00,,2013-02-09 04:02:00,
2013-02-08 21:11:00,31.0,20.0,29.70,South,188,10.0,23.0,62,-99.99,,,0.00,,2013-02-09 04:11:00,
2013-02-08 21:22:00,31.0,20.0,29.70,South,188,10.0,23.0,62,-99.99,,,0.00,,2013-02-09 04:22:00,
2013-02-08 21:32:00,31.0,20.0,29.69,SSE,167,3.0,13.0,64,-99.99,,,0.00,,2013-02-09 04:32:00,
2013-02-08 21:42:00,31.0,18.0,29.69,SSE,167,3.0,13.0,59,-99.99,,,0.00,,2013-02-09 04:42:00,
2013-02-08 21:52:00,31.0,18.0,29.69,SSE,167,3.0,13.0,59,-99.99,,,0.00,,2013-02-09 04:52:00,
2013-02-08 22:02:00,31.0,12.0,29.72,SSW,211,11.0,20.0,44,-99.99,,,0.00,,2013-02-09 05:02:00,
2013-02-08 22:12:00,31.0,12.0,29.72,SSW,198,9.0,20.0,46,-99.99,,,-99.99,,2013-02-09 05:12:00,
2013-02-08 22:22:00,31.0,12.0,29.72,SSW,198,9.0,20.0,46,-99.99,,,-99.99,,2013-02-09 05:22:00,
2013-02-08 22:31:00,31.0,12.0,29.71,South,188,6.0,13.0,46,-99.99,,,0.00,,2013-02-09 05:31:00,
2013-02-08 22:41:00,30.0,13.0,29.70,South,187,6.0,13.0,47,-99.99,,,0.00,,2013-02-09 05:41:00,
2013-02-08 22:52:00,30.0,13.0,29.70,South,187,6.0,13.0,47,-99.99,,,0.00,,2013-02-09 05:52:00,
2013-02-08 23:01:00,30.0,13.0,29.69,South,187,4.0,11.0,49,-99.99,,,0.00,,2013-02-09 06:01:00,
2013-02-08 23:11:00,30.0,13.0,29.69,South,187,7.0,11.0,49,-99.99,,,0.00,,2013-02-09 06:11:00,
2013-02-08 23:21:00,30.0,13.0,29.69,South,187,7.0,11.0,49,-99.99,,,0.00,,2013-02-09 06:21:00,
2013-02-08 23:31:00,30.0,14.0,29.68,South,187,11.0,14.0,50,-99.99,,,0.00,,2013-02-09 06:31:00,
2013-02-08 23:41:00,30.0,14.0,29.68,SSW,206,11.0,17.0,51,-99.99,,,0.00,,2013-02-09 06:41:00,
2013-02-08 23:52:00,30.0,14.0,29.68,SSW,206,11.0,17.0,51,-99.99,,,0.00,,2013-02-09 06:52:00,